Rexburg, ID

8:54 PM MDT on March 26, 2017 (GMT -0600)
Rexburg-Madison County

Weather History for KRXE - December, 2013

Change the Weather History Date:

Tuesday, December 24, 2013

  Actual Average Record
Temperature  
Mean Temperature 27 °F 20 °F  
Max Temperature 37 °F 28 °F 40 °F (2003)
Min Temperature 16 °F 12 °F -9 °F (2001)
Degree Days  
Heating Degree Days 38 45  
Month to date heating degree days 1228 1055  
Since 1 July heating degree days 2991 3067  
Cooling Degree Days 0 0  
Month to date cooling degree days 0 0  
Year to date cooling degree days 452 208  
Moisture  
Dew Point 22 °F    
Average Humidity 79    
Maximum Humidity 100    
Minimum Humidity 57    
Precipitation  
Precipitation 0.04 in 0.05 in 0.51 in (2007)
Month to date precipitation 0.63 0.75  
Year to date precipitation 8.29 12.78  
Sea Level Pressure  
Sea Level Pressure 30.37 in    
Wind  
Wind Speed 7 mph (SSW)    
Max Wind Speed 21 mph    
Max Gust Speed 25 mph    
Visibility 8 miles    
Events Snow    
T = Trace of Precipitation, MM = Missing Value Source: NWS Daily Summary

Daily Weather History Graph

Daily Weather History Graph

Search for Another Location

Airport or City:

Trip Planner

Search our weather history database for the weather conditions in past years. The results will help you decide how hot, cold, wet, or windy it might be!

Date:

Astronomy

Dec. 24, 2013 Rise Set
Actual Time 7:59 AM MST 4:54 PM MST
Civil Twilight 7:26 AM MST 5:27 PM MST
Nautical Twilight 6:50 AM MST 6:03 PM MST
Astronomical Twilight 6:15 AM MST 6:38 PM MST
Moon No Moon Rise 11:42 AM MST (12/24)
Length of Visible Light 10h 00m
Length of Day
8h 54m
Waning Gibbous, 58% of the Moon is Illuminated
Dec 24
Waning Gibbous
Dec 25
Last Quarter
Jan 1
New
Jan 7
First Quarter
Jan 15
Full

Hourly Weather History & Observations

Time (MST) Temp. Windchill Dew Point Humidity Pressure Visibility Wind Dir Wind Speed Gust Speed Precip Events Conditions
12:09 AM 36.0 °F 26.0 °F 30.9 °F 82% 30.06 in 10.0 mi SW 17.3 mph - N/A   Overcast
12:53 AM 32.0 °F 24.8 °F 28.9 °F 88% 30.17 in 10.0 mi West 8.1 mph - N/A   Overcast
1:42 AM 30.9 °F 22.2 °F 28.0 °F 89% 30.11 in 10.0 mi NNW 10.4 mph 19.6 mph 0.00 in Snow Light Snow
1:53 AM 30.9 °F 23.5 °F 27.0 °F 85% 30.21 in 9.0 mi NNW 8.1 mph - 0.00 in   Overcast
2:12 AM 32.0 °F 25.6 °F 28.9 °F 88% 30.13 in 1.8 mi North 6.9 mph 17.3 mph 0.00 in Snow Light Snow
2:24 AM 32.0 °F 27.5 °F 30.0 °F 92% 30.13 in 0.8 mi NNE 4.6 mph - 0.02 in Snow Light Snow
2:33 AM 32.0 °F - 30.0 °F 92% 30.14 in 1.0 mi Calm Calm - 0.02 in Snow Light Snow
2:53 AM 30.9 °F 26.2 °F 30.0 °F 96% 30.23 in 1.0 mi Variable 4.6 mph - 0.03 in Snow Light Snow
3:00 AM 32.0 °F 26.4 °F 28.9 °F 88% 30.14 in 3.0 mi SW 5.8 mph - 0.00 in Snow Light Snow
3:14 AM 32.0 °F - 28.0 °F 85% 30.14 in 9.0 mi Calm Calm - 0.00 in   Overcast
3:53 AM 30.9 °F - 28.0 °F 89% 30.25 in 9.0 mi Calm Calm - 0.01 in   Overcast
4:53 AM 25.0 °F - 24.1 °F 96% 30.31 in 10.0 mi Calm Calm - N/A   Scattered Clouds
5:53 AM 24.1 °F - 19.0 °F 81% 30.35 in 10.0 mi Calm Calm - N/A   Clear
6:53 AM 21.0 °F - 15.1 °F 78% 30.40 in 10.0 mi Calm Calm - N/A   Scattered Clouds
7:53 AM 19.9 °F - 12.9 °F 74% 30.43 in 10.0 mi Calm Calm - N/A   Overcast
8:53 AM 21.0 °F 14.6 °F 16.0 °F 81% 30.45 in 10.0 mi South 4.6 mph - N/A   Clear
9:53 AM 25.0 °F 20.7 °F 16.0 °F 69% 30.46 in 10.0 mi SW 3.5 mph - N/A   Clear
10:53 AM 27.0 °F 18.7 °F 14.0 °F 58% 30.48 in 10.0 mi South 8.1 mph - N/A   Clear
11:53 AM 27.0 °F 18.0 °F 19.9 °F 75% 30.48 in 10.0 mi SSW 9.2 mph - N/A   Clear
12:53 PM 28.0 °F 20.0 °F 19.0 °F 69% 30.48 in 10.0 mi South 8.1 mph - N/A   Clear
1:53 PM 30.0 °F 22.4 °F 19.0 °F 64% 30.47 in 10.0 mi South 8.1 mph - N/A   Clear
2:53 PM 30.0 °F 22.4 °F 21.0 °F 69% 30.47 in 10.0 mi South 8.1 mph - N/A   Clear
3:53 PM 30.0 °F 21.1 °F 21.0 °F 69% 30.48 in 10.0 mi SSW 10.4 mph - N/A   Clear
4:53 PM 27.0 °F 18.7 °F 19.0 °F 72% 30.53 in 10.0 mi South 8.1 mph - N/A   Clear
5:53 PM 25.0 °F 14.2 °F 19.0 °F 78% 30.54 in 10.0 mi South 11.5 mph - N/A   Clear
6:53 PM 26.1 °F 14.5 °F 19.0 °F 75% 30.55 in 10.0 mi South 13.8 mph - N/A   Clear
7:53 PM 25.0 °F 16.3 °F 19.0 °F 78% 30.58 in 10.0 mi South 8.1 mph - N/A   Clear
8:53 PM 23.0 °F 13.9 °F 17.1 °F 78% 30.60 in 10.0 mi SSW 8.1 mph - N/A   Clear
9:53 PM 24.1 °F 13.7 °F 17.1 °F 75% 30.58 in 10.0 mi South 10.4 mph - N/A   Mostly Cloudy
10:53 PM 25.0 °F 14.8 °F 17.1 °F 72% 30.58 in 10.0 mi SSW 10.4 mph - N/A   Overcast
11:53 PM 23.0 °F 14.7 °F 15.1 °F 72% 30.61 in 10.0 mi SSW 6.9 mph - N/A   Mostly Cloudy